Location: Fort Wayne
(41.1310°N, 85.1290°W)
Time: 23:21:20
(UTC-05:00)

COSMOS 2428 - Visible Passes

Search period start: 26 November 2014 00:00
Search period end: 06 December 2014 00:00
Orbit: 842 x 860 km, 71.0° (Epoch: 26 November)

Date Brightness Start Highest point End Pass type
(mag) Time Alt. Az. Time Alt. Az. Time Alt. Az.
26 Nov 4.9 19:05:33 10° NNE 19:05:40 10° NNE 19:05:40 10° NNE visible
27 Nov 4.7 18:53:15 10° NNE 18:53:58 12° NNE 18:53:58 12° NNE visible
27 Nov 5.2 20:35:38 10° NNW 20:35:59 12° NNW 20:35:59 12° NNW visible
28 Nov 4.6 18:40:57 10° NNE 18:42:21 13° NNE 18:42:21 13° NNE visible
28 Nov 4.9 20:23:20 10° NNW 20:24:23 16° NNW 20:24:23 16° NNW visible
29 Nov 4.4 18:28:39 10° NNE 18:30:50 14° NE 18:30:50 14° NE visible
29 Nov 4.5 20:11:02 10° NNW 20:12:53 21° NNW 20:12:53 21° NNW visible
30 Nov 4.3 18:16:21 10° NNE 18:19:15 14° NE 18:19:29 14° NE visible
30 Nov 4.0 19:58:43 10° NNW 20:01:32 30° NNW 20:01:32 30° NNW visible
01 Dec 4.3 18:04:03 10° NNE 18:06:57 14° NE 18:08:21 13° ENE visible
01 Dec 3.3 19:46:25 10° NNW 19:50:25 47° NNW 19:50:25 47° NNW visible
02 Dec 4.3 17:51:45 10° NNE 17:54:38 14° NE 17:57:30 10° ENE visible
02 Dec 2.6 19:34:07 10° NNW 19:39:39 78° NE 19:39:39 78° NE visible
02 Dec 5.5 21:20:36 10° WNW 21:21:46 12° W 21:21:46 12° W visible
03 Dec 4.3 17:39:27 10° NNE 17:42:20 14° NE 17:45:11 10° ENE visible
03 Dec 2.5 19:21:48 10° NNW 19:27:33 80° ENE 19:29:32 43° SE visible
03 Dec 5.4 21:08:18 10° WNW 21:11:00 14° W 21:11:43 13° WSW visible
04 Dec 2.6 19:09:30 10° NNW 19:15:14 79° ENE 19:20:55 10° SSE visible
04 Dec 5.4 20:55:59 10° WNW 20:58:41 14° W 21:01:23 10° SW visible
05 Dec 2.6 18:57:11 10° NNW 19:02:56 79° ENE 19:08:36 10° SSE visible
05 Dec 5.5 20:43:40 10° WNW 20:46:23 14° W 20:49:05 10° SW visible
